Weather History for Lancaster, TX

Change the Weather History Date:

Monday, February 25, 2013

  Actual Average (KRBD) Record (KRBD)
Temperature  
Mean Temperature 50 °F -  
Max Temperature 60 °F 57 °F 87 °F (2008)
Min Temperature 39 °F 40 °F 19 °F (2003)
Degree Days  
Heating Degree Days 16    
Moisture  
Dew Point 38 °F    
Average Humidity 64    
Maximum Humidity 87    
Minimum Humidity 31    
Precipitation  
Precipitation 0.01 in - - ()
Sea Level Pressure  
Sea Level Pressure 29.58 in    
Wind  
Wind Speed 12 mph (WSW)    
Max Wind Speed 30 mph    
Max Gust Speed 45 mph    
Visibility 10 miles    
Events Rain    
Averages and records for this station are not official NWS values.
T = Trace of Precipitation, MM = Missing Value Source: NWS Daily Summary

Daily Weather History Graph

Daily Weather History Graph

Search for Another Location

Airport:

Trip Planner

Search our weather history database for the weather conditions in past years. The results will help you decide how hot, cold, wet, or windy it might be!

Date:

Astronomy

Feb. 25, 2013 Rise Set
Actual Time 6:58 AM CST 6:21 PM CST
Civil Twilight 6:34 AM CST 6:46 PM CST
Nautical Twilight 6:05 AM CST 7:14 PM CST
Astronomical Twilight 5:37 AM CST 7:43 PM CST
Moon 6:32 PM CST (2/25) 6:31 AM CST (2/25)
Length of Visible Light 12h 12m
Length of Day
11h 22m
Full, 100% of the Moon is Illuminated
Feb 25
Full
Feb 25
Full
Mar 4
Last Quarter
Mar 11
New
Mar 19
First Quarter

Hourly Weather History & Observations

Time (CST) Temp. Windchill Dew Point Humidity Pressure Visibility Wind Dir Wind Speed Gust Speed Precip Events Conditions
12:15 AM 51.8 °F - 41.0 °F 67% 29.63 in 10.0 mi SE 6.9 mph - N/A   Clear
12:35 AM 51.8 °F - 41.0 °F 67% 29.62 in 10.0 mi SE 5.8 mph - N/A   Scattered Clouds
12:55 AM 51.8 °F - 42.8 °F 71% 29.60 in 10.0 mi SSE 9.2 mph - N/A   Overcast
1:15 AM 53.6 °F - 42.8 °F 67% 29.59 in 10.0 mi SE 10.4 mph - N/A   Overcast
1:35 AM 55.4 °F - 42.8 °F 63% 29.59 in 10.0 mi East 9.2 mph - N/A   Overcast
1:55 AM 55.4 °F - 42.8 °F 63% 29.60 in 10.0 mi SE 8.1 mph - N/A   Overcast
2:15 AM 55.4 °F - 42.8 °F 63% 29.60 in 10.0 mi SE 12.7 mph 17.3 mph N/A   Overcast
2:35 AM 57.2 °F - 42.8 °F 59% 29.59 in 10.0 mi ESE 9.2 mph - N/A   Overcast
2:55 AM 55.4 °F - 42.8 °F 63% 29.60 in 10.0 mi East 5.8 mph - N/A   Overcast
3:15 AM 57.2 °F - 42.8 °F 59% 29.63 in 10.0 mi Calm Calm - N/A   Overcast
3:35 AM 55.4 °F - 42.8 °F 63% 29.63 in 10.0 mi North 4.6 mph - N/A   Overcast
3:55 AM 55.4 °F - 42.8 °F 63% 29.62 in 10.0 mi ENE 6.9 mph - N/A Rain Light Rain
4:15 AM 55.4 °F - 44.6 °F 67% 29.61 in 10.0 mi East 6.9 mph - N/A Rain Rain
4:35 AM 53.6 °F - 44.6 °F 72% 29.62 in 10.0 mi Calm Calm - N/A Rain Light Rain
4:55 AM 51.8 °F - 46.4 °F 82% 29.62 in 10.0 mi Calm Calm - N/A   Light Drizzle
5:15 AM 51.8 °F - 46.4 °F 82% 29.60 in 10.0 mi ENE 8.1 mph - N/A   Overcast
5:35 AM 51.8 °F - 44.6 °F 76% 29.58 in 10.0 mi East 9.2 mph - N/A   Overcast
5:55 AM 51.8 °F - 44.6 °F 76% 29.57 in 10.0 mi East 8.1 mph - N/A   Overcast
6:15 AM 50.0 °F - 44.6 °F 82% 29.57 in 10.0 mi East 9.2 mph - N/A   Overcast
6:35 AM 50.0 °F - 44.6 °F 82% 29.57 in 10.0 mi East 8.1 mph - N/A   Overcast
6:55 AM 50.0 °F - 44.6 °F 82% 29.56 in 10.0 mi East 6.9 mph - N/A   Overcast
7:15 AM 50.0 °F - 44.6 °F 82% 29.57 in 10.0 mi East 8.1 mph - N/A   Light Drizzle
7:35 AM 50.0 °F - 44.6 °F 82% 29.56 in 10.0 mi ESE 5.8 mph - N/A   Overcast
7:55 AM 50.0 °F - 44.6 °F 82% 29.56 in 10.0 mi ESE 3.5 mph - N/A   Overcast
8:15 AM 50.0 °F - 46.4 °F 87% 29.57 in 10.0 mi Calm Calm - N/A   Overcast
8:35 AM 50.0 °F - 46.4 °F 87% 29.57 in 10.0 mi Calm Calm - N/A   Overcast
8:55 AM 51.8 °F - 46.4 °F 82% 29.57 in 10.0 mi Calm Calm - N/A   Mostly Cloudy
9:15 AM 53.6 °F - 48.2 °F 82% 29.56 in 10.0 mi South 3.5 mph - N/A   Mostly Cloudy
9:35 AM 55.4 °F - 50.0 °F 82% 29.56 in 10.0 mi SSW 8.1 mph - N/A   Mostly Cloudy
9:55 AM 57.2 °F - 51.8 °F 82% 29.55 in 10.0 mi SSW 9.2 mph - N/A   Mostly Cloudy
10:15 AM 55.4 °F - 46.4 °F 72% 29.56 in 10.0 mi WSW 18.4 mph 24.2 mph 0.01 in   Overcast
10:35 AM 55.4 °F - 42.8 °F 63% 29.57 in 10.0 mi West 21.9 mph 28.8 mph 0.01 in   Overcast
10:55 AM 55.4 °F - 39.2 °F 54% 29.57 in 10.0 mi West 20.7 mph 27.6 mph 0.01 in   Mostly Cloudy
11:15 AM 53.6 °F - 37.4 °F 54% 29.57 in 10.0 mi WSW 19.6 mph 27.6 mph N/A   Mostly Cloudy
11:35 AM 53.6 °F - 37.4 °F 54% 29.58 in 10.0 mi West 23.0 mph 29.9 mph N/A   Mostly Cloudy
11:55 AM 55.4 °F - 37.4 °F 51% 29.56 in 10.0 mi West 17.3 mph 28.8 mph N/A   Scattered Clouds
12:15 PM 57.2 °F - 35.6 °F 44% 29.56 in 10.0 mi WSW 21.9 mph 29.9 mph N/A   Clear
12:35 PM 59.0 °F - 33.8 °F 39% 29.55 in 10.0 mi WSW 25.3 mph 33.4 mph N/A   Clear
12:55 PM 59.0 °F - 32.0 °F 36% 29.53 in 10.0 mi WSW 20.7 mph 34.5 mph N/A   Clear
1:15 PM 59.0 °F - 32.0 °F 36% 29.53 in 10.0 mi WSW 25.3 mph 32.2 mph N/A   Scattered Clouds
1:35 PM 60.8 °F - 32.0 °F 34% 29.51 in 10.0 mi WSW 17.3 mph 25.3 mph N/A   Scattered Clouds
1:55 PM 59.0 °F - 30.2 °F 34% 29.50 in 10.0 mi WSW 17.3 mph 27.6 mph N/A   Mostly Cloudy
2:15 PM 59.0 °F - 28.4 °F 31% 29.50 in 10.0 mi WSW 19.6 mph 28.8 mph N/A   Scattered Clouds
2:35 PM 59.0 °F - 30.2 °F 34% 29.49 in 10.0 mi WSW 24.2 mph 32.2 mph N/A   Scattered Clouds
2:55 PM 57.2 °F - 32.0 °F 38% 29.50 in 10.0 mi WSW 24.2 mph 34.5 mph N/A   Clear
3:15 PM 55.4 °F - 30.2 °F 38% 29.50 in 10.0 mi West 20.7 mph 31.1 mph N/A   Scattered Clouds
3:35 PM 55.4 °F - 30.2 °F 38% 29.50 in 10.0 mi West 23.0 mph 34.5 mph N/A   Scattered Clouds
3:55 PM 53.6 °F - 28.4 °F 38% 29.51 in 10.0 mi WSW 21.9 mph 29.9 mph N/A   Scattered Clouds
4:15 PM 51.8 °F - 28.4 °F 41% 29.51 in 10.0 mi WSW 20.7 mph 31.1 mph N/A   Clear
4:35 PM 50.0 °F - 28.4 °F 43% 29.53 in 10.0 mi West 21.9 mph 29.9 mph N/A   Scattered Clouds
4:55 PM 48.2 °F - 28.4 °F 46% 29.53 in 10.0 mi WSW 19.6 mph 29.9 mph N/A   Overcast
5:15 PM 46.4 °F 38.7 °F 30.2 °F 53% 29.53 in 10.0 mi WSW 20.7 mph 31.1 mph N/A   Overcast
5:35 PM 46.4 °F 38.5 °F 30.2 °F 53% 29.54 in 10.0 mi WSW 21.9 mph 29.9 mph N/A   Overcast
5:55 PM 44.6 °F 36.1 °F 32.0 °F 61% 29.54 in 10.0 mi West 21.9 mph 31.1 mph N/A   Overcast
6:15 PM 42.8 °F 33.8 °F 33.8 °F 70% 29.54 in 10.0 mi WSW 21.9 mph 29.9 mph N/A   Overcast
6:35 PM 42.8 °F 35.1 °F 35.6 °F 76% 29.55 in 7.0 mi WSW 16.1 mph 25.3 mph N/A   Overcast
6:55 PM 42.8 °F 35.4 °F 35.6 °F 76% 29.55 in 10.0 mi WSW 15.0 mph 24.2 mph N/A   Overcast
7:15 PM 42.8 °F 33.5 °F 33.8 °F 70% 29.57 in 10.0 mi West 23.0 mph 32.2 mph N/A   Unknown
7:35 PM 41.0 °F 30.7 °F 32.0 °F 70% 29.58 in 10.0 mi West 25.3 mph 35.7 mph N/A   Overcast
7:55 PM 41.0 °F 31.9 °F 32.0 °F 70% 29.59 in 10.0 mi West 19.6 mph 33.4 mph N/A   Overcast
8:15 PM 39.2 °F 29.0 °F 32.0 °F 75% 29.60 in 10.0 mi WNW 21.9 mph 38.0 mph N/A   Overcast
8:35 PM 41.0 °F 31.1 °F 32.0 °F 70% 29.61 in 10.0 mi West 23.0 mph 28.8 mph N/A   Overcast
8:55 PM 41.0 °F 29.8 °F 32.0 °F 70% 29.62 in 10.0 mi West 29.9 mph 38.0 mph N/A   Overcast
9:15 PM 41.0 °F 31.1 °F 32.0 °F 70% 29.62 in 10.0 mi West 23.0 mph 33.4 mph N/A   Overcast
9:55 PM 41.0 °F 31.9 °F 32.0 °F 70% 29.64 in 10.0 mi West 19.6 mph 28.8 mph N/A   Overcast
10:15 PM 41.0 °F 30.0 °F 32.0 °F 70% 29.65 in 10.0 mi WNW 28.8 mph 36.8 mph N/A   Overcast
10:35 PM 41.0 °F 30.9 °F 32.0 °F 70% 29.66 in 10.0 mi WNW 24.2 mph 35.7 mph N/A   Overcast
10:55 PM 41.0 °F 30.2 °F 32.0 °F 70% 29.67 in 10.0 mi WNW 27.6 mph 35.7 mph N/A   Overcast
11:15 PM 41.0 °F 30.7 °F 32.0 °F 70% 29.67 in 10.0 mi WNW 25.3 mph 44.9 mph N/A   Overcast
11:35 PM 41.0 °F 29.8 °F 32.0 °F 70% 29.68 in 10.0 mi WNW 29.9 mph 40.3 mph N/A   Overcast
11:55 PM 41.0 °F 30.9 °F 32.0 °F 70% 29.69 in 10.0 mi WNW 24.2 mph 34.5 mph N/A   Overcast